Location: Forst
(46.9333°N, 15.4333°E)
Time: 07:03:33
(UTC+00:00)

Lacrosse 5 rocket - Pass Details

Date: 20 April 2021
Orbit: 460 x 634 km, 57.0° (Epoch: 12 May)

Event Time Altitude Azimuth Distance (km) Brightness Sun altitude
Rises 19:14:40 0° 289° (WNW) 2,690 6.5 -13.2°
Reaches altitude 10° 19:17:16 10° 305° (NW) 1,834 5.5 -13.6°
Maximum altitude 19:20:30 21° 356° (N) 1,302 3.7 -14.0°
Drops below altitude 10° 19:23:51 10° 47° (NE) 1,919 4.0 -14.5°
Enters shadow 19:26:25 - 62° (ENE) 2,773 4.6 -14.8°
